User: anonymous   Login
Location: Ch?enovice
(49.7164°N, 15.2160°E)
Time: 13:37:19
(UTC+00:00)
Language:

SL-4 R/B - Orbit

View from above orbital plane
View from above orbital plane
View from above satellite
View from above satellite

Ground track
Ground track

The orbit data is extracted from the following two-line orbital elements,

1 39679U 14021B   24202.82625713  .00017875  00000-0  63993-3 0  9997
2 39679  51.6105 329.5161 0134742 116.6082 244.8772 15.20631485565203
Epoch (UTC): 20 July 2024 19:49:48
Eccentricity: 0.0134742
inclination: 51.6105°
perigee height: 411 km
apogee height: 596 km
right ascension of ascending node: 329.5161°
argument of perigee: 116.6082°
revolutions per day: 15.20631485
mean anomaly at epoch: 244.8772°
orbit number at epoch: 56520

The dashed part of the orbit path shows where the satellite is in the earth's shadow,  

DLR